OCNSID Weather Reports


Display with metric or nautical units.
time (UTC)temp
F
wind
direction
speed
MPH
gust
MPH
rain 1hr
in
rain 24hr
in
rain mn
in
humidity
%
barometer
mb
20220702055752 59 313 0.0 13.0 0.00 0.00 0.00 83 1017.9
20220702055252 59 319 0.0 13.0 0.00 0.00 0.00 83 1017.9
20220702054752 59 308 4.0 9.0 0.00 0.00 0.00 83 1017.9
20220702054252 59 310 6.0 14.0 0.00 0.00 0.00 83 1017.9
20220702053752 59 305 5.0 14.0 0.00 0.00 0.00 83 1017.9
20220702053252 59 319 6.0 12.0 0.00 0.00 0.00 83 1017.8
20220702052252 59 343 1.0 13.0 0.00 0.00 0.00 83 1017.9
20220702051752 59 284 4.0 13.0 0.00 0.00 0.00 83 1017.8
20220702051252 59 309 4.0 18.0 0.00 0.00 0.00 83 1017.9
20220702050252 59 308 6.0 17.0 0.00 0.00 0.00 83 1017.9
20220702045753 59 320 9.0 16.0 0.00 0.00 0.00 83 1017.9
20220702045252 59 308 8.0 14.0 0.00 0.00 0.00 83 1017.9
20220702044752 59 331 4.0 13.0 0.00 0.00 0.00 83 1017.9
20220702044252 59 305 6.0 19.0 0.00 0.00 0.00 83 1017.8
20220702043252 59 310 3.0 15.0 0.00 0.00 0.00 83 1017.8
20220702042752 58 289 8.0 19.0 0.00 0.00 0.00 83 1017.8
20220702042252 59 317 6.0 19.0 0.00 0.00 0.00 84 1017.8
20220702041752 59 320 7.0 15.0 0.00 0.00 0.00 84 1017.8
20220702041252 59 313 9.0 14.0 0.00 0.00 0.00 84 1017.9
20220702040752 59 345 4.0 17.0 0.00 0.00 0.00 84 1017.8
20220702040252 59 289 4.0 17.0 0.00 0.00 0.00 84 1017.8
20220702035752 59 323 4.0 13.0 0.00 0.00 0.00 84 1017.8
20220702035252 59 323 7.0 13.0 0.00 0.00 0.00 84 1017.9
20220702034752 59 323 6.0 13.0 0.00 0.00 0.00 84 1018.0
20220702034252 59 333 7.0 15.0 0.00 0.00 0.00 84 1017.9
20220702033752 60 340 2.0 15.0 0.00 0.00 0.00 83 1017.8
20220702032752 60 306 5.0 16.0 0.00 0.00 0.00 82 1017.9
20220702032252 60 289 7.0 16.0 0.00 0.00 0.00 83 1018.0
20220702031252 60 330 6.0 18.0 0.00 0.00 0.00 82 1018.1
20220702030752 60 322 6.0 18.0 0.00 0.00 0.00 82 1018.1
20220702030252 60 351 9.0 15.0 0.00 0.00 0.00 82 1018.1
20220702025252 60 334 7.0 16.0 0.00 0.00 0.00 80 1018.1
20220702024752 60 308 7.0 16.0 0.00 0.00 0.00 80 1018.1
20220702024252 60 324 9.0 15.0 0.00 0.00 0.00 80 1018.1
20220702023752 60 344 5.0 17.0 0.00 0.00 0.00 81 1018.2
20220702023252 60 21 8.0 17.0 0.00 0.00 0.00 82 1018.2
20220702022752 60 338 8.0 22.0 0.00 0.00 0.00 82 1018.1
20220702022252 60 322 11.0 22.0 0.00 0.00 0.00 81 1018.2
20220702021752 61 334 8.0 22.0 0.00 0.00 0.00 81 1018.2
20220702021252 61 296 10.0 20.0 0.00 0.00 0.00 80 1018.2
20220702020752 61 323 9.0 17.0 0.00 0.00 0.00 80 1018.3
20220702020252 61 296 9.0 17.0 0.00 0.00 0.00 80 1018.2
20220702015752 61 4 8.0 19.0 0.00 0.00 0.00 81 1018.1
20220702015253 61 322 9.0 19.0 0.00 0.00 0.00 80 1018.3
20220702014752 61 287 7.0 16.0 0.00 0.00 0.00 80 1018.3
20220702014252 61 323 6.0 16.0 0.00 0.00 0.00 80 1018.3
20220702013752 61 313 9.0 20.0 0.00 0.00 0.00 80 1018.5
20220702013251 61 317 10.0 20.0 0.00 0.00 0.00 81 1018.4
20220702012752 60 352 11.0 19.0 0.00 0.00 0.00 81 1018.5
20220702012252 60 323 8.0 19.0 0.00 0.00 0.00 82 1018.5
20220702011752 61 319 9.0 19.0 0.00 0.00 0.00 81 1018.6
20220702011252 61 309 11.0 20.0 0.00 0.00 0.00 81 1018.6
20220702010252 60 326 10.0 17.0 0.00 0.00 0.00 80 1018.9
20220702005751 60 316 9.0 17.0 0.00 0.00 0.00 81 1018.8
20220702005253 60 306 8.0 17.0 0.00 0.00 0.00 81 1018.9
20220702004751 60 287 8.0 18.0 0.00 0.00 0.00 80 1018.9
20220702004251 60 319 8.0 18.0 0.00 0.00 0.00 80 1019.0
20220702003751 61 277 4.0 14.0 0.00 0.00 0.00 81 1019.1
20220702003251 60 292 8.0 20.0 0.00 0.00 0.00 81 1019.2
20220702002251 60 294 8.0 20.0 0.00 0.00 0.00 82 1019.4
20220702001752 60 32 9.0 20.0 0.00 0.00 0.00 82 1019.4
20220702000752 61 306 7.0 20.0 0.00 0.00 0.00 81 1019.4
20220702000251 61 313 9.0 20.0 0.00 0.00 0.00 81 1019.5
20220701235752 61 309 9.0 23.0 0.00 0.00 0.00 82 1019.5
20220701235253 61 299 9.0 23.0 0.00 0.00 0.00 81 1019.6
20220701234751 61 301 10.0 16.0 0.00 0.00 0.00 81 1019.7
20220701234251 61 323 10.0 16.0 0.00 0.00 0.00 81 1019.6
20220701233751 61 287 8.0 16.0 0.00 0.00 0.00 81 1019.7
20220701233251 60 336 9.0 16.0 0.00 0.00 0.00 81 1019.8
20220701232752 61 315 6.0 14.0 0.00 0.00 0.00 82 1019.9
20220701232252 61 319 8.0 19.0 0.00 0.00 0.00 81 1019.9
20220701230751 61 309 9.0 17.0 0.00 0.00 0.00 83 1020.1
20220701230251 61 340 8.0 18.0 0.00 0.00 0.00 83 1020.1
20220701225751 61 309 9.0 18.0 0.00 0.00 0.00 83 1020.1
20220701225252 61 299 7.0 18.0 0.00 0.00 0.00 84 1020.1
20220701224751 61 333 7.0 17.0 0.00 0.00 0.00 83 1020.2
20220701224251 61 320 6.0 18.0 0.00 0.00 0.00 83 1020.1
20220701223751 61 323 8.0 18.0 0.00 0.00 0.00 83 1020.1
20220701223252 61 309 8.0 18.0 0.00 0.00 0.00 83 1020.2
20220701222251 60 309 11.0 16.0 0.00 0.00 0.00 84 1020.3
20220701221751 60 273 10.0 16.0 0.00 0.00 0.00 84 1020.2
20220701221252 61 291 8.0 16.0 0.00 0.00 0.00 83 1020.3
20220701220751 61 266 7.0 16.0 0.00 0.00 0.00 82 1020.3
20220701220251 61 324 8.0 16.0 0.00 0.00 0.00 82 1020.3
20220701215751 61 323 9.0 14.0 0.00 0.00 0.00 82 1020.4
20220701215251 61 340 8.0 13.0 0.00 0.00 0.00 82 1020.4
20220701214751 61 313 7.0 14.0 0.00 0.00 0.00 83 1020.4
20220701214251 61 299 7.0 14.0 0.00 0.00 0.00 82 1020.5
20220701213751 61 312 5.0 14.0 0.00 0.00 0.00 83 1020.5
20220701211751 60 310 8.0 12.0 0.00 0.00 0.00 84 1020.7
20220701210751 60 266 8.0 12.0 0.00 0.00 0.00 84 1020.6
20220701210251 60 308 5.0 13.0 0.00 0.00 0.00 84 1020.6
20220701204751 60 313 5.0 15.0 0.00 0.00 0.00 84 1020.6
20220701204251 60 316 6.0 15.0 0.00 0.00 0.00 84 1020.6
20220701203751 60 313 8.0 12.0 0.00 0.00 0.00 85 1020.6
20220701203252 60 294 6.0 17.0 0.00 0.00 0.00 85 1020.7
20220701202751 60 327 5.0 17.0 0.00 0.00 0.00 86 1020.6
20220701202251 60 333 8.0 17.0 0.00 0.00 0.00 86 1020.6
20220701201751 60 316 6.0 14.0 0.00 0.00 0.00 86 1020.6
20220701201251 59 309 9.0 14.0 0.00 0.00 0.00 86 1020.7
20220701200751 60 287 6.0 14.0 0.00 0.00 0.00 86 1020.7
20220701200251 59 306 8.0 14.0 0.00 0.00 0.00 86 1020.8
20220701195752 60 338 7.0 14.0 0.00 0.00 0.00 86 1020.8
20220701194751 60 313 8.0 13.0 0.00 0.00 0.00 86 1020.7
20220701194251 60 337 6.0 13.0 0.00 0.00 0.00 86 1020.7
20220701193751 60 315 4.0 14.0 0.00 0.00 0.00 86 1020.7
20220701193250 60 296 7.0 14.0 0.00 0.00 0.00 86 1020.7
20220701192752 59 294 7.0 13.0 0.00 0.00 0.00 87 1020.8
20220701192251 60 317 7.0 13.0 0.00 0.00 0.00 87 1020.7
20220701191750 60 317 7.0 12.0 0.00 0.00 0.00 87 1020.7
20220701191250 59 345 6.0 12.0 0.00 0.00 0.00 87 1020.7
20220701190750 60 5 7.0 12.0 0.00 0.00 0.00 87 1020.7
20220701190250 60 22 6.0 12.0 0.00 0.00 0.00 87 1020.7
20220701185250 60 299 1.0 13.0 0.00 0.00 0.00 89 1020.7
20220701184250 59 306 7.0 13.0 0.00 0.00 0.00 89 1020.7
20220701183750 59 317 7.0 15.0 0.00 0.00 0.00 89 1020.7
20220701183250 60 331 4.0 15.0 0.00 0.00 0.00 89 1020.7
20220701182750 59 329 6.0 11.0 0.00 0.00 0.00 89 1020.7
20220701182250 60 310 4.0 12.0 0.00 0.00 0.00 89 1020.7
20220701181752 60 330 0.0 12.0 0.00 0.00 0.00 89 1020.6
20220701181250 59 310 6.0 12.0 0.00 0.00 0.00 89 1020.6
20220701180750 60 329 4.0 12.0 0.00 0.00 0.00 89 1020.7
20220701180250 59 329 6.0 12.0 0.00 0.00 0.00 90 1020.6
20220701175250 59 319 4.0 12.0 0.00 0.00 0.00 90 1020.7
20220701174751 59 310 5.0 9.0 0.00 0.00 0.00 90 1020.6
20220701174250 59 320 5.0 12.0 0.00 0.00 0.00 89 1020.6
20220701173750 59 310 4.0 12.0 0.00 0.00 0.00 89 1020.6
20220701173250 59 299 4.0 12.0 0.00 0.00 0.00 89 1020.7
20220701171750 59 323 7.0 11.0 0.00 0.00 0.00 89 1020.6
20220701171250 59 354 6.0 10.0 0.00 0.00 0.00 89 1020.6
20220701170751 59 333 6.0 11.0 0.00 0.00 0.00 89 1020.6
20220701170250 59 344 3.0 11.0 0.00 0.00 0.00 89 1020.6
20220701165750 59 341 4.0 10.0 0.00 0.00 0.00 89 1020.6
20220701165250 59 337 5.0 10.0 0.00 0.00 0.00 88 1020.6
20220701164750 59 344 4.0 11.0 0.00 0.00 0.00 88 1020.6
20220701164250 59 327 5.0 11.0 0.00 0.00 0.00 88 1020.6
20220701163751 59 331 6.0 9.0 0.00 0.00 0.00 88 1020.6
20220701163250 60 343 5.0 9.0 0.00 0.00 0.00 87 1020.5
20220701162750 60 340 3.0 9.0 0.00 0.00 0.00 86 1020.5
20220701161751 60 323 5.0 8.0 0.00 0.00 0.00 84 1020.4
20220701161250 60 0 0.0 8.0 0.00 0.00 0.00 83 1020.4
20220701160750 61 338 0.0 8.0 0.00 0.00 0.00 84 1020.4
20220701160250 60 0 0.0 4.0 0.00 0.00 0.00 83 1020.4
20220701155751 60 0 0.0 0.0 0.00 0.00 0.00 84 1020.4
20220701154750 60 0 0.0 0.0 0.00 0.00 0.00 84 1020.3
20220701154250 60 0 0.0 2.0 0.00 0.00 0.00 85 1020.3
20220701153750 60 0 0.0 2.0 0.00 0.00 0.00 84 1020.4
20220701153250 60 278 0.0 2.0 0.00 0.00 0.00 85 1020.4
20220701152750 60 0 0.0 1.0 0.00 0.00 0.00 85 1020.3
20220701152250 60 0 0.0 7.0 0.00 0.00 0.00 85 1020.3
20220701151750 60 294 0.0 7.0 0.00 0.00 0.00 85 1020.3
20220701151250 60 319 0.0 7.0 0.00 0.00 0.00 86 1020.3
20220701150750 59 0 0.0 6.0 0.00 0.00 0.00 86 1020.3
20220701150250 59 0 0.0 6.0 0.00 0.00 0.00 86 1020.3
20220701145750 59 334 0.0 6.0 0.00 0.00 0.00 86 1020.3
20220701145250 59 315 3.0 5.0 0.00 0.00 0.00 86 1020.3
20220701144750 59 0 0.0 0.0 0.00 0.00 0.00 86 1020.3
20220701144250 59 0 0.0 6.0 0.00 0.00 0.00 87 1020.3
20220701143751 59 302 0.0 6.0 0.00 0.00 0.00 87 1020.3
20220701143250 59 319 0.0 6.0 0.00 0.00 0.00 87 1020.2
20220701142750 59 295 3.0 6.0 0.00 0.00 0.00 87 1020.2
20220701141750 59 0 0.0 6.0 0.00 0.00 0.00 87 1020.2
20220701141250 59 0 0.0 0.0 0.00 0.00 0.00 87 1020.1
20220701140750 59 0 0.0 10.0 0.00 0.00 0.00 87 1020.1
20220701140251 59 323 0.0 10.0 0.00 0.00 0.00 87 1020.1
20220701135750 59 319 3.0 8.0 0.00 0.00 0.00 87 1020.1
20220701134750 59 0 3.0 6.0 0.00 0.00 0.00 87 1020.0
20220701134249 59 0 0.0 6.0 0.00 0.00 0.00 87 1020.0
20220701133749 59 312 0.0 6.0 0.00 0.00 0.00 87 1020.0
20220701133251 59 0 2.0 2.0 0.00 0.00 0.00 87 1019.9
20220701132249 59 348 0.0 9.0 0.00 0.00 0.00 87 1019.8
20220701131749 59 336 0.0 7.0 0.00 0.00 0.00 88 1019.8
20220701131249 59 316 0.0 9.0 0.00 0.00 0.00 88 1019.8
20220701130249 59 337 3.0 9.0 0.00 0.00 0.00 88 1019.8
20220701125749 59 0 5.0 6.0 0.00 0.00 0.00 87 1019.8
20220701124749 59 0 1.0 4.0 0.00 0.00 0.00 88 1019.8
20220701124249 59 320 0.0 4.0 0.00 0.00 0.00 88 1019.8
20220701123749 59 0 0.0 0.0 0.00 0.00 0.00 88 1019.7
20220701123249 59 264 0.0 7.0 0.00 0.00 0.00 88 1019.6
20220701122249 59 347 0.0 1.0 0.00 0.00 0.00 88 1019.6
20220701121749 59 0 0.0 0.0 0.00 0.00 0.00 88 1019.6
20220701121249 59 322 0.0 6.0 0.00 0.00 0.00 88 1019.6
20220701120749 59 327 0.0 6.0 0.00 0.00 0.00 88 1019.6
20220701120249 59 0 0.0 3.0 0.00 0.00 0.00 88 1019.6
20220701115749 59 308 0.0 12.0 0.00 0.00 0.00 88 1019.5
20220701114749 59 334 3.0 12.0 0.00 0.00 0.00 88 1019.6
20220701114249 59 294 5.0 8.0 0.00 0.00 0.00 88 1019.6
20220701113749 59 273 0.0 9.0 0.00 0.00 0.00 87 1019.5
20220701113249 59 334 0.0 9.0 0.00 0.00 0.00 87 1019.5
20220701112749 59 294 0.0 9.0 0.00 0.00 0.00 87 1019.6
20220701111749 59 281 4.0 10.0 0.00 0.00 0.00 87 1019.5
20220701111249 59 312 1.0 10.0 0.00 0.00 0.00 87 1019.5
20220701110750 59 2 2.0 10.0 0.00 0.00 0.00 87 1019.5
20220701110249 59 303 1.0 7.0 0.00 0.00 0.00 88 1019.6
20220701105749 59 322 0.0 11.0 0.00 0.00 0.00 88 1019.5
20220701104749 59 5 7.0 8.0 0.00 0.00 0.00 87 1019.6
20220701104249 59 334 1.0 11.0 0.00 0.00 0.00 88 1019.5
20220701103749 59 348 4.0 11.0 0.00 0.00 0.00 88 1019.6
20220701102249 59 313 1.0 9.0 0.00 0.00 0.00 88 1019.5
20220701101749 59 322 3.0 7.0 0.00 0.00 0.00 88 1019.5
20220701101249 59 355 0.0 10.0 0.00 0.00 0.00 88 1019.5
20220701100749 59 313 2.0 10.0 0.00 0.00 0.00 88 1019.5
20220701100249 59 315 0.0 10.0 0.00 0.00 0.00 88 1019.5
20220701095749 59 323 2.0 8.0 0.00 0.00 0.00 88 1019.5
20220701094749 59 340 2.0 12.0 0.00 0.00 0.00 87 1019.4
20220701094249 59 316 2.0 12.0 0.00 0.00 0.00 87 1019.4
20220701093749 59 4 3.0 9.0 0.00 0.00 0.00 88 1019.4
20220701093249 59 296 5.0 11.0 0.00 0.00 0.00 88 1019.4
20220701092749 59 352 0.0 11.0 0.00 0.00 0.00 88 1019.4
20220701091749 59 319 3.0 10.0 0.00 0.00 0.00 87 1019.4
20220701091249 59 273 5.0 10.0 0.00 0.00 0.00 87 1019.4
20220701090749 59 322 7.0 9.0 0.00 0.00 0.00 87 1019.3
20220701090250 59 327 0.0 9.0 0.00 0.00 0.00 87 1019.4
20220701085749 59 329 5.0 12.0 0.00 0.00 0.00 87 1019.4
20220701084749 59 298 0.0 12.0 0.00 0.00 0.00 87 1019.3
20220701084249 59 308 0.0 11.0 0.00 0.00 0.00 87 1019.3
20220701083749 59 295 1.0 8.0 0.00 0.00 0.00 87 1019.3
20220701083249 59 305 0.0 8.0 0.00 0.00 0.00 87 1019.4
20220701082249 59 309 5.0 12.0 0.00 0.00 0.00 87 1019.4
20220701081749 59 338 4.0 10.0 0.00 0.00 0.00 87 1019.5
20220701081249 59 308 6.0 12.0 0.00 0.00 0.00 87 1019.4
20220701080749 59 352 1.0 12.0 0.00 0.00 0.00 87 1019.5
20220701080249 59 313 3.0 12.0 0.00 0.00 0.00 87 1019.4
20220701074748 59 280 3.0 8.0 0.00 0.00 0.00 87 1019.5
20220701074248 59 344 3.0 10.0 0.00 0.00 0.00 87 1019.5
20220701073749 59 302 4.0 10.0 0.00 0.00 0.00 87 1019.5
20220701073248 59 340 6.0 9.0 0.00 0.00 0.00 87 1019.5
20220701072748 60 308 5.0 7.0 0.00 0.00 0.00 87 1019.5
20220701071748 60 281 0.0 11.0 0.00 0.00 0.00 87 1019.5
20220701070748 59 282 2.0 8.0 0.00 0.00 0.00 87 1019.6
20220701070248 59 309 0.0 10.0 0.00 0.00 0.00 87 1019.5
20220701065749 59 327 3.0 10.0 0.00 0.00 0.00 87 1019.5
20220701064749 59 320 5.0 16.0 0.00 0.00 0.00 87 1019.6
20220701064249 59 306 1.0 16.0 0.00 0.00 0.00 87 1019.6
20220701063748 59 312 7.0 16.0 0.00 0.00 0.00 87 1019.5
20220701062248 59 322 4.0 18.0 0.00 0.00 0.00 87 1019.5
20220701061248 60 298 7.0 14.0 0.00 0.00 0.00 87 1019.6
20220701060748 59 324 3.0 14.0 0.00 0.00 0.00 87 1019.5
20220701060248 59 317 5.0 14.0 0.00 0.00 0.00 87 1019.6